Wind_Speed
68 67 66 67 69 70 71 74 74 71 69 67 66 63 61 60 60 57 54 52 48 43 42 45 47 43 40 38 34 33 32 31 32 30 28 25 22 22 19 13 8 4 5 4 3 4 6 5 6 8 9 10 11 12 14 15 16 16 15 13 10 9 10 10 11 12 12 12 13 13 13 13 13 14 15 16 17 18 19 20 20 21 22 22 22 23
69 68 68 71 73 73 74 75 73 71 70 69 68 65 63 62 63 60 57 54 49 43 41 45 48 44 40 40 37 34 33 33 34 33 31 26 23 23 19 14 10 6 5 2 3 4 5 5 5 6 7 8 10 11 13 15 15 15 15 13 10 9 9 10 10 10 11 11 11 11 11 12 12 13 14 15 15 16 17 18 19 20 21 21 22 23
69 69 72 74 74 74 74 75 73 71 71 70 69 67 64 63 65 64 61 57 51 45 43 46 49 45 42 42 39 36 35 35 35 35 33 28 25 25 20 15 12 9 7 3 4 4 4 4 4 5 6 7 8 11 12 14 15 15 15 14 12 9 8 9 10 10 10 10 10 9 10 10 11 12 12 13 14 14 15 16 17 18 19 20 21 22
71 72 75 75 75 75 75 75 73 72 71 71 70 69 67 65 67 67 65 61 55 49 46 47 49 47 46 44 40 37 36 36 36 36 35 31 29 27 21 17 14 11 9 6 5 4 2 3 3 4 5 5 7 9 12 13 15 15 14 14 12 10 7 8 9 9 9 10 10 9 9 9 9 10 11 11 12 13 13 14 15 16 17 18 19 20
74 76 77 76 75 75 75 75 74 73 73 72 72 71 70 69 69 70 68 64 59 54 50 50 51 49 46 45 42 39 36 36 36 36 36 34 32 28 23 20 16 12 11 9 6 4 1 2 3 3 4 5 5 8 10 12 13 14 14 13 13 11 8 7 7 8 8 8 9 9 9 8 8 9 9 10 11 11 12 12 13 14 15 16 17 18
77 78 77 76 75 75 75 75 74 74 75 75 74 74 74 72 70 71 71 68 65 60 53 51 53 52 47 43 42 40 37 37 36 37 36 35 33 29 25 23 18 14 15 13 9 6 4 1 1 3 3 4 5 8 9 10 11 13 13 13 12 12 9 7 7 7 7 7 8 9 9 9 8 8 8 9 9 10 10 11 11 12 13 14 15 16
79 79 78 77 76 76 76 76 76 77 77 77 77 77 76 74 71 72 74 73 71 65 56 52 53 55 51 45 41 40 40 39 37 37 37 36 35 30 27 25 20 17 18 16 12 8 7 5 2 1 2 3 4 7 9 9 9 11 12 11 11 11 10 9 8 8 7 6 6 7 8 9 8 7 7 8 8 8 9 9 10 11 11 12 13 15
80 80 78 78 77 76 77 77 77 78 78 79 81 80 78 77 75 75 76 77 73 68 62 56 53 54 55 51 47 42 41 42 38 36 37 38 37 32 28 27 24 21 21 19 15 12 10 9 6 4 1 1 3 6 9 9 8 9 11 11 10 10 10 10 9 10 9 7 6 5 7 8 8 7 6 7 7 7 8 8 9 10 10 11 11 12
81 80 79 79 78 77 77 79 80 79 79 82 83 83 81 81 79 77 77 77 75 72 68 62 56 55 56 55 53 46 40 42 41 38 37 39 39 34 30 30 28 25 25 23 20 16 14 13 10 8 6 3 3 5 7 9 7 7 10 11 10 9 9 10 10 11 11 9 7 5 5 7 7 7 6 6 7 7 7 8 8 8 9 10 10 11
81 81 81 81 79 79 80 82 82 80 81 83 84 84 84 83 82 79 77 76 75 75 72 67 61 58 58 57 57 52 45 44 43 41 39 39 39 37 33 32 31 29 27 25 24 20 18 15 13 11 9 6 3 4 6 7 7 6 9 11 11 10 9 9 10 11 12 12 9 6 4 5 7 7 7 7 7 7 7 7 8 8 9 9 9 10
81 82 82 80 79 81 84 84 82 82 83 83 83 86 86 85 82 78 75 73 73 75 74 71 66 62 59 59 59 57 52 47 44 43 41 39 39 37 36 34 33 32 28 26 26 24 21 17 14 14 12 9 5 3 4 6 6 5 7 9 11 11 9 8 10 11 12 12 11 8 5 4 6 7 8 8 8 8 8 8 8 9 9 9 10 10
84 83 81 79 80 83 85 85 84 84 85 83 83 85 86 84 81 78 74 72 73 75 76 73 70 66 62 60 61 61 57 51 46 45 44 43 42 40 38 36 36 35 31 28 28 27 24 18 16 17 15 11 7 3 3 5 6 5 6 7 9 11 10 7 8 9 10 11 11 10 7 4 5 7 8 9 9 9 9 9 9 9 9 10 10 10
86 83 81 81 82 84 86 85 84 85 84 83 82 83 84 84 82 79 77 76 76 78 78 75 73 70 66 62 61 61 60 56 50 47 46 46 46 43 41 39 38 35 32 30 30 29 25 21 19 19 18 15 11 7 4 6 7 6 7 8 9 10 10 8 7 7 8 9 9 9 8 5 5 7 8 9 9 10 10 10 10 10 10 10 10 10
87 84 83 83 84 85 85 84 83 84 83 81 80 81 82 83 83 82 81 80 80 80 79 78 76 74 69 64 62 61 61 60 56 51 49 48 47 44 41 39 37 34 31 30 30 29 26 23 23 21 19 16 15 12 10 8 8 8 7 9 10 11 11 10 7 7 8 8 8 9 8 6 4 6 7 8 9 10 10 10 10 10 10 10 10 10
88 86 84 84 85 86 85 84 84 85 84 82 80 79 81 83 85 85 84 82 82 81 79 78 78 77 74 68 65 62 61 60 59 55 53 51 48 44 40 38 35 32 28 28 30 31 28 26 26 24 21 18 17 17 15 12 10 9 10 10 11 12 12 10 6 6 9 8 9 10 9 6 4 4 5 7 8 9 10 10 10 10 10 10 10 10
88 87 85 84 85 86 86 85 86 87 86 84 81 79 80 83 87 89 88 86 85 82 79 78 79 79 78 74 69 65 62 60 60 58 57 55 52 47 42 38 34 29 27 29 32 33 31 30 30 29 27 23 20 20 19 17 15 12 12 13 13 14 13 9 4 3 6 7 8 10 9 7 4 3 4 5 7 8 10 10 10 10 10 9 9 9
88 88 86 84 83 85 87 87 88 89 88 85 82 80 79 82 87 91 91 89 87 83 78 77 80 82 80 77 73 69 65 62 60 59 59 57 54 50 45 40 35 32 32 34 35 34 33 32 33 32 29 25 22 22 23 21 19 16 14 14 14 14 12 8 4 1 3 4 5 8 8 6 4 2 2 3 4 7 9 10 11 10 9 9 8 8
90 90 89 86 85 86 88 89 90 91 90 87 84 82 81 82 86 89 91 91 88 84 78 74 78 82 82 79 76 73 69 66 62 60 59 58 56 52 48 43 40 40 41 39 35 35 35 34 34 31 27 24 24 24 24 23 22 21 17 13 13 13 11 8 6 6 5 4 5 5 5 5 3 2 2 2 3 6 8 10 11 10 10 9 8 8
92 91 91 89 88 88 88 90 91 91 90 88 87 84 82 82 83 86 90 91 89 87 82 75 75 79 82 81 78 76 73 71 68 64 62 60 57 55 52 48 47 48 48 43 38 37 38 38 36 32 28 26 25 25 24 23 23 22 18 14 13 14 11 8 7 7 8 8 7 7 5 4 3 2 3 3 3 6 8 10 11 11 10 10 10 9
93 92 92 92 91 89 88 89 90 91 90 89 88 86 84 83 83 85 88 90 91 90 87 82 77 76 79 80 79 78 77 75 73 70 67 64 60 58 55 53 53 54 52 48 45 43 42 40 36 34 32 29 26 25 24 23 22 21 17 14 16 16 13 12 12 11 11 11 10 10 10 9 5 3 4 5 5 8 11 11 12 13 12 11 11 11
94 93 93 94 93 90 88 88 89 91 91 91 90 88 87 86 85 84 85 88 92 92 90 87 82 78 77 79 80 80 80 79 76 74 70 66 63 61 59 57 57 59 57 52 50 49 46 42 38 34 32 30 28 26 25 23 22 21 18 16 18 18 16 16 16 16 16 14 11 11 13 12 9 7 6 6 6 9 11 12 13 14 13 13 13 13
94 93 94 94 94 93 90 89 89 91 93 93 92 91 90 88 87 85 85 86 90 93 92 88 86 82 80 79 80 81 82 81 79 77 73 70 66 63 62 61 60 62 61 57 53 52 49 45 41 37 33 31 30 29 29 28 26 24 21 19 19 20 19 19 19 19 19 17 16 15 14 13 12 11 10 7 6 7 8 10 12 13 13 14 14 14
94 93 94 95 95 94 92 90 90 92 94 94 93 93 92 91 88 86 85 85 88 92 93 90 88 87 83 81 80 80 82 83 82 80 76 73 70 67 66 65 64 64 64 61 56 54 51 46 43 40 37 34 33 32 33 33 31 27 23 21 21 22 22 23 24 23 21 20 19 19 17 15 14 13 13 11 9 8 7 8 10 11 12 14 15 16
93 92 94 95 96 95 94 93 92 93 94 95 94 94 93 91 89 87 85 85 85 88 91 91 89 88 86 84 81 80 81 82 83 82 79 76 73 71 69 68 67 66 66 64 60 56 53 50 46 43 40 38 37 38 39 37 34 31 26 22 22 24 26 27 26 25 24 22 21 21 20 18 16 14 15 16 13 11 9 9 9 10 12 15 17 17
92 91 92 95 96 97 97 96 95 94 94 95 95 94 93 91 89 87 86 85 85 85 87 89 89 88 88 87 84 82 81 81 81 81 81 79 76 73 72 70 70 69 68 67 64 60 57 54 51 47 43 39 37 40 44 42 38 34 27 22 24 28 29 28 27 26 26 25 23 23 22 19 17 16 17 17 16 14 13 12 12 12 13 15 17 18
92 91 92 94 96 98 99 98 97 96 95 94 94 93 93 91 89 88 87 86 85 84 83 85 87 88 88 88 87 84 82 82 81 81 82 82 79 76 75 74 73 72 71 70 68 64 60 57 54 50 45 40 37 41 45 45 42 38 31 27 30 33 31 30 29 30 30 29 27 26 24 21 19 18 18 18 17 16 15 15 15 15 15 15 17 18
92 92 92 94 96 98 99 99 98 97 95 93 92 92 92 91 89 88 88 87 86 85 83 82 85 86 86 86 87 86 84 83 83 82 83 84 82 80 78 77 76 75 74 73 71 68 63 58 52 47 44 41 39 43 47 45 43 41 37 36 37 36 34 32 30 31 32 31 30 29 27 24 21 20 19 19 19 17 16 17 18 17 16 16 17 18
91 92 92 93 96 98 100 100 99 97 95 93 92 92 91 91 90 89 89 88 87 85 84 83 83 85 85 85 86 86 86 85 84 84 84 84 84 83 81 80 79 78 77 76 75 72 69 64 57 53 51 47 43 46 49 47 45 43 40 40 38 37 37 35 32 33 32 30 32 33 31 27 24 22 20 20 21 21 20 21 21 20 19 19 18 18
91 91 91 93 95 97 99 100 99 98 96 94 92 91 91 91 91 91 90 90 89 87 85 84 83 84 86 87 86 85 86 86 85 85 84 84 85 84 83 83 82 82 80 78 77 75 73 71 67 64 64 60 56 53 52 50 49 48 44 40 36 35 36 36 35 35 33 31 31 32 31 29 28 25 22 22 23 24 24 24 24 23 21 22 21 20
90 90 90 93 94 96 98 99 99 98 96 95 93 92 92 92 92 92 92 91 91 89 87 86 84 84 85 86 87 86 86 86 86 86 85 84 84 85 86 86 85 85 84 82 80 78 75 74 74 73 73 73 70 65 59 56 55 53 50 44 39 37 36 35 36 36 35 34 32 29 28 29 31 31 28 26 27 27 27 27 26 24 22 22 23 23
89 89 90 93 94 94 97 99 99 99 98 97 95 94 94 93 93 93 93 93 92 91 90 89 87 85 84 85 87 87 86 85 85 86 87 86 86 86 87 88 88 87 87 86 84 81 78 76 75 76 76 76 75 71 67 65 63 60 57 52 48 44 41 39 36 34 35 36 33 31 29 27 30 34 34 31 30 28 27 27 27 25 23 23 24 25
88 89 91 94 94 93 95 98 100 101 101 99 97 96 95 95 95 95 95 95 94 93 93 91 89 88 86 85 86 87 88 87 86 87 89 89 88 87 87 87 88 89 88 87 86 84 81 78 77 76 77 77 76 73 70 70 69 66 63 61 56 51 49 46 42 38 37 37 36 36 35 31 31 35 35 34 32 30 29 28 28 26 24 24 24 25
86 88 90 92 94 93 94 97 99 100 100 100 99 98 98 98 97 97 96 96 96 95 94 94 92 90 88 86 85 86 88 89 89 89 90 91 90 88 87 87 87 88 89 88 87 85 84 82 79 76 76 77 78 76 73 71 70 69 69 67 64 60 57 53 50 48 46 42 39 38 36 33 33 35 36 36 35 33 33 33 32 30 29 29 29 29
84 87 88 90 93 94 94 95 97 99 100 100 101 100 100 100 99 99 98 97 97 97 96 95 95 93 91 88 87 87 88 89 91 91 91 91 90 90 89 89 88 88 89 89 89 88 87 87 85 81 78 77 77 78 76 74 72 72 72 70 68 67 64 60 58 57 56 52 50 47 43 38 39 41 42 42 40 37 37 38 39 37 34 33 34 34
82 84 87 89 91 93 93 94 96 98 100 102 102 102 101 101 101 101 99 98 98 98 97 96 96 95 94 92 90 90 89 90 91 92 92 91 91 91 92 91 91 90 90 90 90 90 90 90 90 89 85 81 78 77 77 77 77 76 75 74 71 70 69 68 67 66 64 63 62 62 60 58 57 57 55 53 52 50 48 46 45 42 36 32 31 32
80 83 85 87 89 91 93 93 95 98 100 102 102 103 103 102 103 103 102 100 99 98 97 97 96 96 96 95 94 93 93 92 92 93 93 93 93 93 93 93 93 93 92 92 91 92 92 92 92 92 91 89 85 81 79 78 78 78 78 77 75 73 72 72 72 71 69 68 67 68 69 69 69 67 65 62 61 61 58 53 50 47 39 30 25 27
79 81 83 85 87 89 91 93 95 98 100 101 102 104 104 104 105 105 104 103 101 98 98 98 97 97 97 97 96 96 95 95 94 94 94 95 95 95 95 96 96 96 95 95 94 94 94 94 93 93 92 92 91 88 85 82 80 78 78 77 77 76 76 76 75 74 73 72 70 70 70 70 71 70 68 65 63 61 58 53 49 47 43 36 30 31
78 80 82 84 85 88 90 93 95 97 100 101 103 105 106 107 107 107 107 106 103 101 99 99 99 99 98 98 98 98 97 96 95 95 95 96 97 98 98 98 98 99 99 98 98 98 97 96 95 94 93 92 92 92 91 89 86 84 82 80 79 78 78 78 77 77 77 75 73 72 72 71 71 70 69 67 64 62 58 54 50 47 46 44 41 38
78 79 81 82 84 86 88 91 93 96 98 100 102 104 107 109 110 110 109 107 105 103 101 101 101 100 100 100 99 98 98 96 95 96 97 98 99 99 99 100 100 101 102 102 101 101 100 99 98 96 94 94 93 93 92 92 91 89 88 86 84 82 81 80 80 79 79 78 76 75 74 73 72 72 70 69 67 64 62 60 57 52 49 49 48 45
80 79 80 82 83 85 87 89 92 94 95 97 99 102 105 109 110 111 110 109 108 106 104 103 99 91 91 98 102 100 99 98 98 98 98 99 99 99 99 100 101 103 104 104 104 104 102 101 100 99 97 96 95 94 94 93 92 91 90 89 87 85 84 83 82 81 80 80 79 78 77 75 74 73 72 70 69 67 66 65 63 60 57 55 54 52
81 82 82 82 83 85 86 88 90 92 93 95 98 100 103 106 108 110 111 110 110 108 106 105 99 87 81 89 98 101 101 100 100 101 101 100 100 101 101 102 102 104 105 105 106 105 105 103 102 101 100 99 97 96 95 95 94 93 91 90 89 87 86 85 84 83 82 82 81 80 80 79 77 75 74 73 72 71 70 69 67 65 64 62 59 57
78 82 84 84 84 85 87 88 89 91 92 94 97 100 102 104 105 108 111 111 110 110 109 108 105 99 93 92 94 98 100 102 102 104 105 105 104 104 104 105 104 104 105 106 107 106 106 105 104 103 102 101 100 99 98 97 95 94 93 92 91 90 89 87 86 86 85 84 83 82 81 81 80 78 77 76 75 74 73 72 71 69 67 66 64 61
69 77 83 86 87 87 88 89 90 91 92 93 96 99 101 102 104 107 109 110 111 111 110 109 108 106 104 101 98 98 100 103 106 107 108 108 108 107 107 107 106 106 106 107 107 108 108 107 106 105 104 103 102 101 100 99 98 96 95 94 93 93 92 91 90 89 88 86 85 85 84 83 83 81 80 78 78 77 76 75 73 72 70 69 66 64
58 66 75 83 87 90 90 91 91 92 93 94 95 98 99 101 103 105 107 109 111 111 111 111 110 108 106 105 103 100 99 102 106 110 110 110 109 110 110 110 108 107 108 108 108 109 109 109 109 108 106 106 105 104 103 101 100 99 98 97 96 95 95 94 93 92 91 90 89 88 86 86 85 83 82 81 80 79 79 77 76 74 73 71 69 67
50 57 64 73 81 88 92 94 94 94 94 95 96 98 99 100 102 104 106 108 110 111 112 112 112 111 109 107 105 103 101 101 104 109 112 112 111 111 112 111 110 110 111 111 110 110 109 109 109 109 108 107 106 105 105 104 103 102 100 100 99 99 98 97 97 96 95 94 93 91 90 89 87 86 85 85 84 82 81 80 78 76 75 73 71 70
43 49 55 62 70 79 87 93 96 97 97 97 97 98 99 100 101 103 105 107 108 109 111 112 112 111 110 108 107 106 104 103 104 107 111 114 115 114 113 113 113 114 115 114 112 111 110 109 108 108 108 108 107 107 106 105 105 104 103 102 102 101 101 100 99 98 97 97 96 95 94 92 91 90 89 88 87 85 84 82 81 79 77 76 74 73
37 43 49 55 61 69 76 84 92 97 99 100 100 100 100 100 101 102 104 105 107 108 109 111 112 111 110 111 111 109 106 105 106 108 111 115 117 118 116 115 116 117 118 116 114 112 111 110 109 108 108 108 108 108 107 107 106 106 105 104 103 103 103 102 102 101 100 99 98 98 97 96 95 94 92 90 89 88 86 85 83 82 80 79 77 76
34 39 43 49 55 60 67 74 81 88 95 99 102 103 103 102 102 103 103 104 106 108 109 110 110 110 111 113 114 113 110 109 111 114 116 118 119 120 119 118 118 118 118 117 115 114 113 112 111 111 110 110 109 109 108 108 107 107 106 106 105 105 104 104 104 103 102 102 101 100 99 98 97 96 94 93 91 90 89 87 86 85 84 82 81 80
32 36 40 44 49 55 60 66 72 78 84 91 97 101 103 104 104 104 104 104 106 107 108 109 109 110 111 112 114 114 113 114 116 120 122 122 122 121 121 120 119 118 117 117 116 115 115 115 114 114 113 113 112 111 110 108 108 107 106 106 106 106 105 105 105 104 104 103 103 102 101 99 98 96 95 94 93 92 92 91 90 89 88 86 85 83
30 34 38 42 46 50 55 60 65 70 75 81 87 92 97 102 105 106 106 106 106 107 108 109 109 110 110 111 113 114 114 116 119 122 124 124 122 121 122 121 120 119 118 117 117 116 116 116 116 117 117 116 115 114 112 111 110 108 107 106 106 106 106 106 106 106 106 105 104 103 101 100 98 97 96 95 94 94 94 93 93 92 91 90 89 87
27 31 35 40 44 48 52 56 60 65 69 74 78 83 88 93 98 103 106 107 107 107 108 109 110 111 111 112 113 113 115 117 120 122 124 125 124 122 121 121 121 121 119 119 119 118 118 117 116 117 118 118 117 116 115 114 113 111 110 109 108 108 107 107 107 107 107 107 106 105 104 102 101 100 99 98 97 97 96 95 95 94 93 93 92 91
Wind_Direction
214 213 212 212 211 210 210 211 212 211 211 211 210 209 206 204 203 201 200 200 198 200 203 199 195 195 196 198 200 204 208 214 218 218 216 216 219 222 229 237 231 247 283 304 13 45 37 30 41 42 36 37 33 31 34 35 39 43 50 56 53 46 44 44 45 48 54 59 61 63 64 63 61 60 60 60 61 62 63 63 63 63 62 60 57 55
214 213 213 212 211 210 211 211 211 210 210 211 210 210 208 204 202 200 198 199 199 199 202 201 198 195 196 199 201 202 206 211 216 218 216 213 216 220 225 233 228 221 245 266 70 68 52 51 50 38 36 37 34 35 35 33 34 38 46 53 55 47 37 38 39 39 44 50 58 62 63 64 63 61 61 60 59 59 60 61 60 61 61 60 58 56
214 213 213 213 212 211 211 211 210 210 210 210 210 210 209 206 202 199 198 200 201 199 200 202 200 196 195 197 198 199 204 210 214 217 216 210 214 220 222 226 223 213 224 210 110 90 58 52 53 39 38 41 37 36 32 27 26 31 40 49 55 53 36 31 32 33 35 37 46 54 58 61 63 64 63 62 62 60 59 60 59 59 59 60 58 57
213 213 214 213 212 211 211 211 210 209 210 210 210 211 211 208 203 200 199 200 202 200 199 202 202 199 196 196 198 198 202 210 214 216 215 209 212 219 218 218 215 208 215 199 140 117 58 20 44 56 47 46 36 29 26 22 19 22 32 42 50 54 45 31 28 30 29 29 33 39 47 54 57 61 62 62 63 63 62 61 59 59 59 60 60 59
214 214 213 213 213 212 211 211 210 209 210 210 210 211 212 210 206 202 201 201 203 202 198 200 203 201 197 198 201 199 201 209 215 218 216 211 213 217 216 218 215 208 210 199 172 152 150 359 38 81 63 49 27 11 11 14 13 15 23 34 44 48 47 34 28 28 26 25 26 28 34 41 45 51 55 57 59 62 63 61 60 60 59 60 61 61
214 214 213 213 213 212 211 211 210 210 210 210 211 212 213 211 208 204 203 203 205 205 199 198 201 201 198 201 204 202 202 207 213 218 218 215 217 218 216 218 215 210 212 205 190 178 186 230 32 93 75 45 20 2 358 1 6 8 15 26 38 43 42 32 21 23 25 22 20 21 23 29 35 39 43 48 52 56 58 59 60 60 60 61 63 63
214 214 213 213 213 213 212 211 210 210 210 210 210 212 213 212 209 206 206 205 206 205 201 197 200 200 199 201 203 203 205 206 210 216 217 218 219 217 216 218 214 212 216 211 198 189 198 212 221 132 77 33 15 2 355 352 355 2 9 18 30 37 36 26 13 14 23 22 18 16 16 20 26 31 33 37 43 46 48 52 56 57 58 58 60 63
213 213 213 213 213 213 213 212 210 210 210 210 210 212 213 213 211 208 208 207 205 204 203 201 200 201 200 202 202 202 206 208 211 214 215 218 218 214 214 215 213 213 217 215 202 196 206 215 221 223 230 346 352 348 348 350 348 356 4 10 18 26 28 22 10 8 15 21 19 11 8 12 17 20 22 25 29 35 37 42 50 54 55 56 57 58
213 212 213 212 212 213 213 213 211 210 211 211 210 211 212 213 212 210 209 207 204 204 206 206 204 202 201 203 203 201 204 207 210 212 213 218 219 214 213 213 212 215 219 217 208 202 210 215 219 228 239 270 326 334 335 342 349 357 3 7 8 11 18 18 10 6 9 15 21 13 358 1 7 10 10 10 14 21 27 30 37 45 51 54 54 54
212 212 212 212 211 212 214 213 211 211 212 211 210 211 212 213 213 212 210 208 205 205 207 208 208 206 203 203 203 201 203 205 206 208 210 218 223 220 215 212 213 217 219 220 217 211 213 217 217 226 238 252 299 339 329 333 346 360 5 8 5 2 6 9 5 4 4 7 16 20 359 346 353 358 358 358 1 7 14 20 26 31 38 44 47 48
212 212 212 211 212 212 214 214 212 212 212 211 210 211 212 213 214 213 211 210 208 208 209 209 209 209 206 204 203 204 206 207 207 207 207 214 221 221 217 213 215 218 219 223 224 221 220 221 221 225 232 242 270 338 337 321 329 349 359 6 7 2 357 356 359 0 0 2 9 18 12 336 335 344 350 352 352 355 3 9 17 20 23 28 35 39
211 211 210 211 212 214 215 214 213 213 212 210 210 211 211 212 214 214 213 211 211 211 211 210 210 209 208 206 205 206 209 210 210 210 209 212 216 219 219 216 215 217 219 221 225 227 226 226 227 227 226 234 254 300 328 301 298 314 333 344 358 1 355 346 348 353 356 358 4 15 20 348 322 331 339 344 347 349 353 360 9 15 16 18 24 30
211 210 209 210 212 214 215 215 215 214 213 210 211 211 211 211 213 214 214 213 212 212 212 211 210 210 209 208 207 208 210 212 212 211 211 213 216 217 219 218 217 219 221 218 220 227 229 227 228 229 227 232 246 265 277 279 283 294 323 342 350 352 350 341 333 346 358 358 3 13 21 10 329 325 331 335 340 345 348 352 359 7 13 15 18 22
211 210 209 209 211 213 214 215 216 216 214 212 211 212 211 211 212 214 215 214 214 213 211 211 211 210 210 209 208 209 210 212 213 212 211 212 214 215 217 219 219 222 222 217 218 226 228 225 226 227 227 230 240 251 257 268 277 280 304 339 351 347 344 339 327 337 351 3 19 22 25 23 347 326 328 329 332 338 342 348 353 360 6 12 15 17
212 211 210 210 211 213 214 215 216 216 215 213 212 212 212 211 212 214 215 216 216 214 212 211 211 211 211 210 210 210 210 212 213 212 211 211 212 212 213 215 216 219 220 219 223 227 225 222 224 226 226 230 238 246 253 264 271 274 284 309 334 339 338 339 337 339 342 1 33 32 29 33 15 343 333 325 324 328 333 340 347 354 358 4 10 13
213 212 211 211 211 213 213 214 216 216 215 213 211 212 212 212 212 214 215 216 216 215 212 211 212 213 212 211 211 212 212 213 213 212 212 212 212 212 211 212 213 215 218 221 223 222 222 224 226 228 230 234 241 246 252 260 265 271 279 289 310 321 326 333 350 10 353 357 25 25 25 32 24 357 343 325 316 320 326 332 337 344 350 354 2 8
213 213 212 212 212 213 214 215 215 216 215 213 211 211 212 213 214 215 215 215 216 215 213 211 212 213 213 212 212 213 214 215 215 214 214 214 215 214 212 212 212 214 218 220 221 222 225 228 229 230 234 238 243 245 247 253 258 265 277 287 299 308 312 315 305 298 346 346 356 3 12 20 11 346 344 334 317 318 322 326 327 331 337 341 348 356
213 213 213 212 213 214 215 215 216 216 215 214 211 211 212 214 215 215 215 216 216 216 214 212 213 214 214 213 214 214 216 217 217 217 217 218 218 217 215 212 210 213 217 218 223 229 231 230 229 230 233 236 239 241 242 247 251 259 273 287 296 302 303 305 293 270 270 284 301 324 347 356 348 326 326 331 324 323 323 325 322 321 321 324 329 339
212 212 212 213 213 214 215 216 217 217 216 215 212 211 211 214 216 216 216 216 216 216 215 214 215 215 215 215 215 215 216 217 217 217 218 219 219 218 217 213 208 211 217 219 223 230 231 229 228 229 232 233 236 239 241 245 249 253 264 278 290 297 295 289 283 263 256 262 271 280 294 307 308 314 337 348 346 338 329 325 322 316 314 314 316 323
212 212 212 213 214 214 215 216 217 217 217 216 214 212 211 213 216 217 216 215 216 217 216 215 216 217 216 216 216 216 217 217 218 217 217 218 218 218 216 214 210 211 215 219 223 226 228 230 230 232 235 236 237 239 242 245 246 247 254 267 276 284 279 272 274 268 265 269 273 282 293 300 301 318 352 356 354 351 343 333 326 321 317 316 316 319
212 212 212 213 214 214 215 216 217 218 218 217 216 214 213 213 214 217 216 216 216 217 216 216 217 217 217 217 218 217 217 218 219 219 218 218 218 218 217 214 212 211 213 219 223 225 227 229 231 234 238 238 237 239 241 241 241 242 246 254 263 268 265 265 270 275 279 280 278 285 294 300 301 306 331 350 349 347 346 338 331 326 322 320 317 319
213 212 212 213 214 215 215 216 217 219 219 218 216 215 214 213 213 215 216 216 217 217 217 217 217 218 218 217 218 219 218 218 219 220 220 219 218 219 219 217 213 211 213 218 224 226 227 229 231 233 237 239 239 239 238 237 242 245 242 241 251 259 263 269 274 280 286 283 273 272 280 289 293 295 305 326 336 335 339 338 330 321 319 319 316 313
213 213 213 213 214 215 215 216 217 219 220 219 217 216 215 214 213 214 216 216 217 218 218 217 218 219 219 219 219 220 220 220 220 220 220 220 219 219 220 219 216 213 213 218 224 227 228 230 232 232 236 239 240 240 238 239 244 246 237 233 246 256 262 270 274 278 283 278 267 263 268 276 281 284 292 301 312 320 325 332 328 314 308 312 312 309
213 213 214 214 214 215 215 216 217 219 220 220 219 218 217 215 214 213 215 217 218 219 219 218 218 220 221 221 220 221 221 221 221 221 221 222 222 221 221 221 220 217 215 218 222 225 227 230 232 234 236 239 243 245 244 243 245 245 238 234 243 252 256 261 264 267 272 272 266 264 268 273 272 271 276 283 292 303 307 313 318 310 302 304 305 306
213 214 214 215 215 215 216 216 217 218 219 220 220 219 218 217 215 214 215 216 218 219 220 219 219 220 222 222 221 221 222 222 222 222 222 223 223 223 223 222 223 222 219 219 222 225 227 231 234 236 236 236 239 242 243 244 245 242 236 233 243 251 253 254 257 259 262 265 268 269 270 270 268 264 268 273 276 282 286 290 298 302 301 298 296 299
213 213 215 215 215 216 217 217 218 218 219 220 221 220 219 218 216 215 215 216 218 219 220 220 220 220 222 224 224 222 222 222 222 222 223 223 224 224 224 224 224 224 224 223 224 225 228 231 233 235 235 233 234 237 238 242 244 239 232 230 239 248 249 251 255 257 258 262 266 270 271 268 265 263 266 269 270 273 274 272 278 289 295 293 291 294
213 213 214 215 216 217 218 218 219 219 220 220 221 221 221 220 219 217 216 216 217 218 219 220 220 220 221 224 226 225 224 223 222 222 223 223 224 224 225 225 225 226 226 226 227 227 227 227 226 227 226 223 228 235 235 238 242 240 233 231 235 241 244 247 252 256 260 263 265 270 271 267 265 263 262 262 260 263 267 263 264 275 284 285 285 288
212 213 214 216 216 217 218 218 219 220 220 221 221 222 222 221 220 219 218 217 217 218 219 220 220 220 220 221 224 226 226 225 224 224 223 223 224 225 225 226 226 227 227 227 228 229 228 227 222 221 221 218 222 233 235 234 237 237 237 236 236 238 242 245 247 250 254 261 266 271 269 263 261 261 258 256 253 254 260 259 258 265 273 277 278 281
211 212 213 215 216 217 218 219 219 220 221 221 222 223 223 222 221 220 219 218 218 218 219 219 220 221 220 220 222 224 226 227 226 226 225 224 225 225 226 226 227 228 228 227 228 229 230 229 225 223 226 226 228 233 235 234 234 235 236 236 235 237 240 242 245 246 246 250 257 262 262 255 253 254 254 253 255 258 259 258 258 262 267 272 274 276
211 212 213 215 216 217 218 219 219 220 221 221 222 223 224 223 222 222 221 220 219 218 218 219 220 221 221 220 221 223 225 228 228 228 227 226 226 226 226 227 227 228 229 229 229 229 230 230 228 226 229 231 233 234 235 234 234 235 235 233 231 233 234 235 238 241 244 245 242 242 246 246 245 248 250 252 254 258 259 258 259 263 266 269 270 271
211 211 213 215 215 216 218 218 219 219 220 221 221 222 224 224 223 223 222 221 220 219 219 219 219 220 221 221 221 221 223 226 228 229 229 228 227 227 227 227 228 228 229 230 230 230 230 230 230 229 229 231 233 234 235 235 236 237 236 234 232 230 229 230 232 235 241 243 241 237 236 238 245 249 248 247 250 255 257 258 259 261 264 266 265 266
210 211 213 216 216 216 217 218 218 219 219 220 221 222 223 224 224 223 223 222 222 220 220 220 220 220 220 221 221 221 221 223 225 227 228 228 228 228 228 228 228 229 230 230 231 231 231 230 230 230 229 230 231 232 234 236 237 238 238 237 235 231 230 231 231 233 236 239 241 242 240 241 249 252 246 242 247 255 259 258 257 256 259 262 263 265
211 211 213 216 216 216 217 218 218 219 219 220 221 221 222 223 224 224 223 223 223 222 221 221 220 220 220 221 221 222 222 222 223 225 227 228 228 229 229 229 230 230 230 231 231 231 231 231 231 231 230 231 231 232 234 236 238 238 238 237 237 235 234 234 234 233 233 232 233 237 241 243 245 247 246 243 245 253 260 260 258 258 262 265 265 265
212 213 213 216 217 216 217 219 219 218 218 220 221 222 222 223 224 224 224 224 224 223 222 222 221 221 221 221 221 222 223 223 224 225 226 228 229 229 229 230 230 230 231 231 231 231 231 232 233 233 232 232 232 233 234 234 236 237 238 238 237 237 236 236 235 234 234 232 232 233 236 236 237 243 250 248 245 251 259 262 262 262 267 271 268 265
213 214 215 216 219 218 217 218 219 219 218 219 220 222 223 224 225 225 225 225 225 225 224 223 223 222 222 221 221 222 223 223 224 225 226 227 228 228 229 230 230 230 231 232 232 232 232 233 234 234 234 234 234 234 234 234 234 236 239 239 239 239 238 237 237 238 238 238 238 238 239 241 244 248 252 251 250 254 260 262 263 262 265 270 271 270
214 215 215 217 219 220 218 218 219 220 220 219 220 221 223 224 225 226 226 225 225 225 226 226 225 224 224 223 223 223 223 223 224 224 225 226 227 228 228 229 230 230 231 231 232 232 233 233 234 234 235 235 235 235 236 235 235 236 238 240 240 240 240 240 240 241 241 240 240 241 242 245 248 250 252 252 252 255 259 261 260 257 256 260 267 271
215 216 216 217 220 221 221 220 219 220 220 220 219 220 221 223 225 226 226 226 225 225 226 227 227 226 226 225 225 225 224 224 225 225 225 226 227 228 228 229 230 230 231 231 232 233 233 233 234 234 235 235 235 236 236 236 237 237 238 239 240 240 241 241 242 242 243 242 242 242 243 245 248 250 252 252 252 254 257 258 257 254 250 247 251 258
216 217 217 218 219 221 222 222 221 220 220 220 220 220 221 222 224 225 226 226 226 225 226 227 228 228 227 227 227 227 227 226 227 227 226 226 227 228 228 228 229 230 230 231 232 232 233 234 234 235 235 235 236 236 237 237 238 239 240 240 241 241 241 242 243 243 244 244 243 243 244 245 247 249 251 252 252 253 255 255 254 254 251 247 247 250
217 218 218 219 220 221 223 224 224 223 222 222 221 221 221 222 223 225 226 227 226 226 226 226 227 229 229 229 228 228 228 229 229 229 229 228 228 228 228 229 229 230 230 231 231 232 233 233 234 235 235 236 236 237 238 238 239 240 241 242 242 242 243 243 244 244 245 245 245 245 245 245 246 248 250 251 252 252 254 254 254 253 252 250 250 249
219 219 219 220 220 222 223 225 226 225 224 223 223 223 223 223 224 225 226 227 227 226 226 226 226 228 230 231 230 230 229 230 230 231 231 231 230 230 230 230 230 231 231 231 231 232 233 233 234 235 235 236 236 237 238 239 240 240 241 242 243 243 244 244 244 245 245 246 246 246 246 246 247 248 249 250 251 251 253 254 254 254 253 253 253 253
221 220 220 221 221 222 224 225 226 227 226 225 224 224 224 224 225 225 226 227 227 227 227 226 225 225 226 229 230 230 230 231 231 232 232 232 231 231 231 231 232 232 232 232 232 233 233 233 234 235 235 236 236 237 238 239 240 241 241 242 243 243 243 244 244 245 246 246 247 247 248 248 248 248 249 250 250 251 252 253 254 254 254 255 255 254
222 222 222 222 222 223 224 225 226 227 228 228 226 225 224 225 225 225 226 227 227 228 228 228 227 226 226 227 229 230 231 231 232 233 233 232 232 232 231 231 231 232 233 233 234 234 234 234 234 235 235 236 237 237 238 239 240 240 241 242 243 243 243 244 244 245 246 247 247 247 247 248 249 250 250 250 250 251 251 252 253 254 254 255 256 255
223 224 224 224 224 224 225 226 227 228 228 229 229 228 226 225 225 226 226 227 227 228 228 229 228 228 228 228 229 230 231 232 233 233 234 233 232 233 233 232 232 232 233 234 234 234 235 235 235 235 235 236 237 237 238 239 239 240 241 242 242 243 244 244 245 245 245 246 246 247 247 249 250 250 250 250 251 251 251 252 253 253 254 255 255 255
224 224 225 225 225 226 226 227 227 228 229 229 230 230 229 227 226 226 226 227 227 228 228 229 229 229 229 229 229 229 231 232 233 234 235 235 234 234 234 234 234 234 234 235 235 235 235 236 236 236 236 236 237 237 238 239 239 240 240 241 242 243 243 244 245 245 245 245 245 246 247 248 249 250 251 251 251 252 252 252 252 252 253 254 255 255
226 226 226 226 226 226 227 228 228 229 229 230 231 231 231 230 228 227 227 227 227 228 228 229 229 229 229 229 229 229 230 232 234 235 236 236 236 235 235 235 236 236 236 236 235 236 235 236 236 237 237 237 237 237 238 239 239 240 240 240 241 242 243 244 244 245 245 245 246 246 246 247 248 249 250 251 252 252 252 252 252 251 252 253 253 253
229 228 228 228 227 227 228 228 229 229 230 230 231 232 232 232 231 229 228 228 227 228 228 229 229 230 230 230 230 229 230 232 234 236 237 238 238 237 237 236 237 237 237 237 237 237 237 237 237 237 238 238 238 238 238 238 239 239 240 241 241 242 243 243 244 245 245 246 247 247 247 247 248 249 249 250 251 252 252 252 251 251 251 251 251 252
234 231 230 230 230 229 229 229 229 230 230 231 231 232 232 233 232 232 230 229 228 228 228 229 229 229 230 230 230 229 229 230 233 235 236 237 238 238 237 237 237 238 238 238 238 239 239 239 239 239 239 239 239 239 239 239 239 239 240 240 241 242 243 244 244 245 245 246 247 247 248 249 249 250 250 250 250 250 250 250 250 251 251 251 250 250
243 237 234 233 232 232 231 231 231 231 231 232 232 232 233 233 233 233 232 231 230 229 228 228 229 229 229 230 230 229 229 229 231 232 234 235 236 237 237 236 237 238 239 239 239 239 240 240 240 240 240 240 240 240 240 240 240 240 240 240 241 242 243 243 244 245 245 246 247 247 249 249 250 250 250 250 249 249 249 249 249 250 250 250 250 250
253 248 242 238 235 235 234 233 233 232 233 233 233 233 233 233 233 233 233 232 231 230 229 229 228 229 229 230 231 231 230 230 231 233 234 235 235 237 237 236 237 238 239 240 240 240 240 241 241 241 241 241 241 241 241 241 241 241 241 241 241 242 242 243 244 245 245 246 247 247 248 249 249 249 249 249 249 249 249 249 249 250 250 250 251 250
258 255 251 246 242 238 236 235 235 234 234 234 234 234 234 234 234 234 234 233 232 232 231 230 229 228 229 230 231 231 231 232 233 234 235 236 237 238 238 238 238 237 238 239 240 241 240 240 241 242 242 242 242 242 242 242 242 242 242 242 242 242 243 243 243 244 245 245 246 246 247 247 247 247 247 247 247 248 249 249 250 250 250 251 251 251
263 259 255 252 249 245 240 237 235 235 235 235 235 235 235 235 235 235 235 234 233 233 232 231 230 229 229 229 230 230 231 232 233 235 236 236 236 237 238 240 240 239 238 238 239 240 241 241 241 241 242 242 243 243 244 243 243 243 243 243 244 244 244 244 244 244 244 244 245 245 246 246 246 246 246 247 247 247 248 249 249 250 250 251 251 251
Height
10882 10889 10896 10900 10901 10904 10907 10908 10912 10922 10931 10937 10942 10948 10954 10960 10965 10970 10975 10980 10984 10987 10990 10992 10995 10999 11002 11004 11006 11007 11009 11010 11011 11013 11015 11016 11018 11020 11022 11023 11024 11025 11026 11026 11026 11026 11026 11026 11025 11024 11023 11022 11021 11020 11019 11018 11017 11017 11016 11015 11014 11013 11013 11012 11011 11010 11010 11010 11009 11009 11009 11009 11008 11008 11007 11007 11006 11005 11005 11004 11003 11002 11001 11001 11000 10999
10878 10885 10888 10888 10890 10896 10899 10902 10911 10921 10927 10932 10938 10944 10950 10955 10959 10965 10971 10976 10980 10983 10986 10989 10992 10997 11000 11002 11004 11006 11007 11008 11009 11011 11013 11015 11017 11019 11021 11023 11024 11025 11026 11026 11026 11027 11027 11027 11026 11025 11024 11023 11022 11021 11020 11019 11018 11018 11017 11016 11016 11015 11014 11014 11013 11012 11012 11011 11011 11011 11011 11010 11009 11009 11008 11008 11008 11007 11007 11006 11005 11005 11004 11003 11002 11001
10873 10877 10877 10879 10885 10891 10895 10900 10909 10917 10922 10928 10935 10940 10946 10951 10956 10961 10966 10970 10974 10978 10981 10985 10988 10993 10997 10999 11002 11004 11006 11007 11007 11009 11011 11013 11015 11017 11020 11022 11023 11025 11026 11026 11026 11027 11028 11028 11027 11026 11025 11024 11023 11022 11021 11020 11019 11019 11018 11018 11017 11017 11016 11016 11015 11014 11013 11013 11013 11012 11012 11011 11011 11010 11010 11010 11009 11009 11008 11008 11007 11007 11006 11005 11004 11003
10864 10864 10866 10872 10879 10885 10890 10896 10904 10912 10918 10924 10930 10936 10941 10945 10950 10955 10960 10964 10968 10972 10976 10980 10984 10988 10992 10996 10999 11002 11004 11005 11006 11007 11009 11011 11013 11016 11019 11021 11022 11024 11025 11026 11026 11027 11028 11028 11028 11027 11026 11025 11024 11023 11022 11020 11020 11019 11019 11018 11018 11018 11018 11017 11017 11016 11015 11015 11014 11014 11013 11013 11013 11012 11012 11011 11011 11011 11010 11010 11009 11009 11008 11007 11007 11006
10850 10851 10857 10867 10873 10880 10886 10892 10900 10908 10913 10919 10925 10929 10933 10938 10945 10951 10956 10961 10965 10968 10972 10976 10980 10984 10989 10993 10996 10999 11001 11003 11004 11006 11007 11010 11012 11015 11018 11020 11022 11023 11025 11026 11026 11027 11028 11028 11028 11027 11027 11026 11025 11024 11023 11022 11020 11020 11019 11019 11019 11019 11018 11018 11018 11018 11017 11016 11016 11016 11015 11015 11014 11014 11013 11013 11012 11012 11012 11012 11011 11011 11010 11010 11009 11009
10839 10844 10855 10863 10869 10876 10881 10887 10896 10902 10907 10913 10919 10922 10925 10932 10940 10946 10952 10956 10959 10963 10968 10973 10976 10980 10986 10990 10994 10997 10999 11001 11003 11005 11007 11009 11011 11014 11017 11019 11021 11023 11024 11025 11026 11027 11028 11028 11028 11028 11028 11027 11026 11025 11024 11023 11021 11021 11020 11019 11019 11019 11019 11019 11019 11019 11019 11018 11017 11017 11016 11016 11016 11015 11015 11014 11014 11014 11013 11013 11013 11013 11012 11012 11011 11011
10832 10841 10851 10857 10863 10870 10875 10882 10889 10894 10900 10907 10912 10915 10919 10926 10934 10940 10944 10947 10951 10959 10966 10970 10972 10977 10981 10985 10990 10994 10996 10998 11001 11003 11005 11007 11009 11013 11016 11018 11020 11022 11023 11024 11025 11026 11027 11028 11028 11028 11028 11027 11027 11026 11025 11024 11023 11022 11021 11020 11020 11020 11020 11020 11020 11020 11020 11019 11018 11018 11017 11017 11017 11016 11016 11016 11016 11015 11015 11015 11014 11014 11014 11013 11013 11012
10826 10836 10844 10850 10857 10864 10870 10877 10882 10887 10894 10899 10903 10907 10913 10919 10925 10930 10935 10939 10947 10956 10962 10965 10968 10973 10977 10980 10984 10988 10992 10995 10998 11001 11003 11005 11007 11012 11015 11016 11018 11020 11021 11022 11023 11025 11026 11027 11028 11028 11028 11027 11026 11026 11025 11024 11023 11023 11022 11021 11021 11020 11020 11020 11020 11020 11021 11020 11020 11019 11018 11018 11018 11018 11017 11017 11017 11017 11017 11016 11016 11015 11015 11015 11014 11014
10820 10830 10837 10843 10851 10858 10864 10867 10872 10880 10885 10889 10894 10900 10905 10909 10914 10921 10928 10936 10945 10952 10957 10961 10965 10968 10972 10975 10979 10983 10987 10991 10995 10997 11000 11001 11004 11010 11012 11013 11015 11017 11019 11020 11021 11023 11024 11026 11027 11027 11028 11027 11026 11026 11025 11025 11024 11023 11022 11022 11021 11021 11021 11021 11021 11021 11021 11021 11021 11020 11019 11019 11018 11018 11018 11018 11018 11018 11018 11018 11017 11017 11017 11016 11016 11016
10814 10823 10827 10835 10844 10850 10852 10854 10863 10872 10875 10879 10888 10894 10898 10901 10908 10916 10926 10935 10943 10948 10952 10957 10961 10964 10968 10971 10976 10980 10983 10986 10991 10994 10997 10999 11002 11007 11009 11011 11013 11016 11018 11019 11020 11021 11022 11024 11025 11026 11027 11027 11026 11025 11025 11025 11025 11024 11023 11022 11022 11022 11022 11022 11021 11021 11021 11021 11021 11021 11020 11020 11019 11019 11019 11019 11019 11019 11019 11019 11019 11018 11018 11018 11017 11017
10808 10814 10821 10832 10840 10841 10840 10845 10857 10861 10863 10872 10882 10887 10892 10898 10906 10916 10927 10936 10943 10946 10949 10953 10957 10961 10965 10969 10973 10976 10979 10983 10987 10991 10995 10998 11000 11004 11006 11009 11011 11014 11016 11018 11019 11020 11021 11022 11023 11024 11025 11026 11026 11025 11025 11025 11025 11025 11024 11023 11023 11023 11023 11022 11022 11022 11021 11021 11022 11022 11022 11021 11020 11020 11020 11020 11020 11020 11020 11020 11019 11019 11019 11019 11019 11018
10797 10806 10818 10828 10831 10830 10833 10841 10849 10851 10857 10869 10877 10881 10890 10898 10906 10917 10926 10933 10938 10940 10942 10947 10952 10957 10961 10965 10969 10973 10977 10981 10984 10988 10992 10996 10998 11001 11003 11006 11009 11012 11014 11016 11017 11018 11020 11021 11022 11023 11024 11025 11025 11025 11025 11025 11025 11025 11025 11024 11024 11023 11023 11023 11023 11023 11022 11022 11022 11023 11023 11022 11022 11021 11021 11021 11021 11021 11021 11021 11020 11020 11020 11020 11020 11020
10791 10802 10812 10817 10819 10822 10828 10837 10843 10847 10856 10867 10873 10879 10889 10897 10906 10913 10917 10921 10924 10926 10933 10941 10946 10951 10957 10962 10967 10971 10974 10977 10981 10985 10989 10992 10996 10998 11001 11004 11007 11010 11012 11014 11015 11016 11018 11019 11020 11021 11022 11023 11024 11025 11025 11025 11025 11025 11025 11025 11024 11024 11024 11023 11023 11023 11023 11023 11023 11023 11024 11024 11023 11023 11023 11022 11022 11022 11022 11022 11022 11021 11021 11021 11021 11021
10788 10796 10802 10807 10812 10817 10824 10833 10840 10846 10855 10865 10871 10878 10886 10894 10902 10905 10907 10911 10913 10916 10926 10935 10940 10946 10953 10959 10963 10966 10969 10973 10977 10981 10985 10989 10992 10995 10999 11001 11005 11008 11009 11011 11013 11014 11015 11017 11017 11018 11019 11021 11022 11024 11024 11024 11025 11025 11025 11024 11024 11024 11024 11024 11024 11024 11024 11024 11024 11024 11024 11025 11025 11024 11024 11024 11023 11023 11023 11023 11023 11023 11022 11022 11022 11022
10782 10790 10797 10803 10808 10812 10821 10828 10833 10839 10848 10857 10866 10873 10880 10888 10894 10895 10898 10902 10905 10912 10922 10930 10936 10942 10948 10954 10958 10961 10966 10969 10972 10976 10980 10985 10988 10992 10995 10998 11001 11004 11007 11009 11011 11012 11013 11013 11014 11015 11016 11018 11020 11022 11023 11024 11024 11024 11024 11024 11024 11024 11024 11024 11024 11024 11024 11025 11025 11025 11025 11025 11025 11025 11025 11025 11024 11024 11024 11024 11024 11024 11024 11023 11023 11023
10779 10788 10795 10801 10804 10809 10815 10819 10823 10829 10837 10847 10858 10866 10874 10880 10882 10883 10887 10891 10896 10905 10916 10925 10931 10935 10940 10946 10952 10957 10962 10964 10967 10972 10976 10980 10984 10988 10991 10995 10999 11002 11005 11006 11007 11007 11008 11008 11010 11012 11014 11017 11019 11020 11022 11023 11023 11024 11024 11023 11023 11023 11023 11023 11024 11024 11024 11025 11026 11026 11026 11026 11026 11026 11026 11025 11025 11025 11025 11025 11025 11025 11025 11024 11024 11024
10776 10783 10790 10797 10802 10805 10808 10812 10816 10821 10828 10840 10853 10860 10866 10871 10872 10874 10879 10885 10891 10902 10913 10920 10923 10927 10935 10942 10947 10952 10957 10961 10966 10969 10972 10977 10980 10984 10989 10994 10998 11000 11000 11001 11001 11001 11002 11004 11006 11009 11012 11015 11017 11018 11019 11021 11022 11023 11023 11022 11023 11023 11023 11023 11023 11023 11024 11024 11025 11026 11026 11026 11026 11025 11026 11026 11025 11025 11025 11025 11025 11025 11025 11025 11025 11024
10766 10774 10782 10790 10795 10797 10801 10805 10809 10812 10822 10834 10844 10852 10859 10862 10864 10869 10876 10882 10890 10900 10910 10914 10916 10922 10931 10938 10942 10948 10953 10957 10962 10966 10970 10974 10977 10982 10987 10990 10993 10993 10993 10995 10996 10997 10998 11000 11004 11008 11011 11012 11013 11015 11016 11019 11021 11022 11022 11022 11022 11022 11022 11022 11023 11023 11023 11023 11024 11024 11025 11025 11025 11025 11025 11025 11025 11025 11025 11025 11025 11025 11025 11025 11025 11024
10756 10765 10774 10781 10784 10787 10793 10799 10802 10808 10818 10826 10835 10845 10852 10855 10859 10864 10871 10880 10887 10896 10904 10909 10913 10919 10926 10932 10938 10943 10946 10950 10954 10958 10962 10967 10972 10977 10981 10983 10985 10986 10988 10990 10992 10992 10993 10997 11002 11006 11008 11009 11011 11013 11015 11017 11019 11020 11021 11021 11021 11021 11021 11021 11021 11021 11022 11022 11022 11023 11023 11024 11024 11024 11024 11024 11024 11024 11024 11024 11024 11025 11025 11025 11025 11025
10750 10759 10767 10771 10774 10781 10788 10793 10798 10805 10812 10819 10829 10838 10844 10849 10853 10856 10865 10875 10880 10887 10896 10902 10908 10915 10921 10927 10933 10936 10939 10942 10946 10950 10954 10960 10965 10970 10974 10977 10978 10980 10983 10986 10987 10987 10989 10994 10999 11003 11005 11007 11009 11011 11013 11015 11017 11019 11020 11019 11019 11019 11019 11019 11019 11019 11020 11021 11022 11022 11022 11023 11024 11024 11023 11023 11024 11024 11024 11024 11024 11024 11025 11025 11025 11025
10745 10753 10759 10762 10768 10776 10782 10787 10793 10798 10803 10810 10820 10828 10835 10841 10845 10851 10860 10868 10873 10880 10888 10896 10903 10909 10915 10920 10924 10927 10930 10935 10939 10945 10951 10957 10961 10965 10968 10970 10973 10977 10980 10982 10983 10984 10987 10992 10996 11000 11003 11006 11008 11010 11011 11013 11014 11015 11016 11016 11016 11017 11017 11017 11017 11017 11019 11021 11022 11022 11022 11023 11024 11024 11024 11024 11023 11023 11023 11024 11024 11024 11024 11025 11025 11025
10738 10746 10752 10755 10761 10769 10775 10781 10786 10789 10792 10800 10809 10817 10825 10833 10839 10847 10854 10862 10868 10873 10881 10891 10897 10901 10906 10911 10915 10919 10924 10929 10934 10940 10946 10952 10957 10961 10963 10965 10969 10973 10977 10979 10980 10981 10985 10990 10994 10997 11000 11003 11006 11008 11009 11011 11011 11011 11013 11013 11013 11014 11015 11015 11015 11016 11018 11019 11020 11021 11021 11022 11023 11024 11025 11025 11024 11023 11023 11023 11024 11024 11024 11024 11025 11025
10732 10740 10744 10748 10755 10763 10770 10775 10779 10780 10784 10792 10800 10808 10817 10826 10835 10843 10850 10857 10863 10867 10875 10884 10889 10893 10900 10906 10909 10913 10918 10923 10928 10935 10941 10947 10952 10955 10957 10960 10964 10969 10973 10976 10977 10979 10984 10987 10991 10994 10997 11000 11003 11005 11006 11007 11006 11007 11010 11012 11011 11012 11012 11012 11012 11014 11016 11017 11018 11019 11020 11021 11022 11024 11024 11025 11024 11023 11023 11023 11024 11024 11024 11024 11024 11024
10727 10734 10738 10743 10750 10756 10761 10766 10769 10772 10777 10784 10792 10801 10810 10820 10830 10840 10847 10854 10858 10862 10870 10878 10884 10890 10895 10899 10904 10908 10913 10918 10924 10931 10937 10943 10947 10950 10953 10956 10960 10964 10969 10971 10973 10977 10981 10984 10987 10991 10993 10996 10999 11001 11003 11003 11002 11003 11008 11010 11010 11009 11009 11009 11009 11011 11013 11014 11016 11017 11019 11020 11021 11022 11023 11024 11024 11023 11023 11023 11023 11024 11024 11024 11024 11024
10721 10728 10732 10737 10742 10746 10751 10755 10759 10764 10769 10776 10785 10795 10804 10814 10826 10836 10843 10848 10852 10858 10866 10874 10881 10885 10886 10890 10897 10902 10908 10914 10919 10926 10932 10938 10942 10945 10948 10951 10955 10959 10963 10967 10970 10974 10977 10980 10984 10987 10991 10994 10995 10996 10997 10997 10998 11001 11007 11009 11006 11003 11004 11005 11006 11008 11010 11012 11013 11015 11016 11018 11019 11021 11021 11022 11022 11022 11022 11022 11022 11023 11023 11023 11023 11023
10713 10720 10725 10730 10735 10739 10743 10748 10752 10757 10764 10771 10781 10791 10800 10809 10821 10830 10837 10842 10848 10854 10861 10869 10875 10879 10881 10885 10891 10896 10902 10907 10912 10918 10924 10930 10935 10938 10941 10945 10948 10953 10957 10962 10966 10970 10973 10977 10981 10986 10990 10992 10991 10990 10990 10992 10994 10999 11005 11005 11000 10997 10999 11001 11003 11005 11007 11009 11011 11013 11014 11015 11016 11018 11019 11020 11020 11020 11020 11021 11022 11022 11022 11022 11022 11023
10704 10711 10717 10723 10729 10733 10737 10743 10749 10755 10763 10771 10779 10786 10794 10804 10815 10824 10831 10837 10842 10848 10855 10861 10866 10872 10878 10881 10884 10889 10895 10900 10905 10910 10916 10921 10926 10930 10934 10938 10941 10945 10950 10955 10959 10964 10969 10972 10978 10984 10986 10987 10986 10982 10983 10987 10991 10995 10998 10996 10994 10995 10997 10999 11001 11003 11005 11007 11010 11011 11012 11013 11013 11015 11016 11017 11017 11018 11019 11019 11020 11020 11020 11021 11021 11022
10695 10704 10711 10715 10721 10725 10730 10736 10744 10752 10760 10768 10774 10780 10788 10798 10806 10815 10822 10829 10836 10843 10849 10853 10858 10864 10870 10874 10876 10881 10886 10892 10898 10902 10908 10914 10919 10923 10927 10930 10933 10937 10941 10947 10952 10957 10962 10966 10973 10976 10976 10979 10979 10974 10974 10982 10987 10988 10988 10989 10993 10996 10996 10997 10999 11001 11005 11008 11009 11009 11009 11009 11010 11011 11013 11014 11015 11015 11016 11017 11018 11018 11018 11019 11020 11020
10688 10696 10702 10707 10713 10719 10724 10732 10741 10749 10756 10763 10770 10776 10782 10789 10797 10804 10812 10819 10827 10834 10840 10846 10851 10854 10859 10865 10870 10873 10877 10882 10889 10894 10901 10907 10911 10915 10919 10922 10925 10928 10932 10938 10943 10948 10954 10959 10965 10968 10969 10971 10970 10966 10970 10977 10980 10980 10981 10986 10992 10995 10996 10997 10998 10999 11003 11007 11007 11007 11007 11006 11006 11007 11009 11011 11012 11013 11014 11014 11015 11016 11017 11017 11018 11019
10682 10690 10695 10699 10706 10713 10718 10726 10735 10744 10751 10757 10763 10769 10774 10781 10789 10796 10803 10809 10817 10825 10832 10838 10842 10846 10852 10859 10864 10867 10871 10877 10882 10887 10893 10900 10904 10907 10910 10913 10916 10919 10923 10929 10934 10940 10945 10950 10956 10961 10963 10963 10962 10962 10966 10970 10971 10973 10977 10983 10990 10993 10994 10994 10994 10995 10998 11001 11001 11002 11003 11003 11003 11003 11005 11007 11008 11009 11011 11011 11012 11013 11014 11015 11016 11017
10676 10684 10689 10691 10698 10705 10711 10718 10727 10735 10741 10747 10754 10760 10765 10772 10780 10787 10793 10800 10808 10815 10821 10827 10832 10838 10844 10851 10856 10860 10866 10870 10874 10877 10883 10889 10894 10897 10901 10904 10908 10912 10915 10920 10926 10931 10937 10942 10947 10952 10955 10956 10956 10957 10960 10963 10965 10969 10974 10979 10985 10989 10989 10988 10990 10992 10993 10995 10996 10997 10997 10998 10998 10998 11000 11002 11003 11005 11007 11008 11009 11009 11011 11012 11014 11015
10670 10677 10681 10684 10691 10699 10704 10711 10719 10726 10732 10739 10745 10751 10756 10762 10769 10776 10782 10790 10797 10805 10811 10817 10823 10829 10835 10841 10846 10852 10857 10860 10863 10866 10870 10875 10881 10887 10892 10896 10900 10904 10908 10913 10918 10923 10928 10933 10938 10942 10946 10949 10950 10951 10953 10956 10960 10963 10967 10972 10978 10982 10982 10982 10985 10986 10987 10989 10992 10993 10993 10994 10995 10995 10996 10998 10999 11001 11002 11004 11005 11007 11008 11009 11011 11012
10665 10671 10676 10679 10685 10692 10697 10703 10710 10719 10726 10731 10735 10740 10746 10751 10759 10766 10773 10779 10786 10794 10802 10808 10814 10820 10826 10833 10838 10843 10847 10851 10854 10855 10858 10864 10872 10879 10885 10889 10893 10897 10901 10905 10910 10914 10919 10924 10929 10933 10936 10939 10942 10945 10948 10950 10952 10953 10957 10964 10970 10973 10975 10976 10977 10978 10981 10985 10988 10989 10989 10991 10992 10991 10992 10994 10995 10996 10998 11000 11002 11004 11005 11007 11008 11009
10661 10666 10671 10673 10677 10685 10692 10697 10704 10711 10717 10720 10725 10732 10738 10744 10750 10757 10763 10770 10777 10784 10791 10798 10804 10811 10818 10824 10830 10834 10837 10841 10844 10846 10851 10858 10866 10872 10876 10880 10884 10888 10892 10896 10901 10906 10910 10915 10919 10923 10926 10930 10933 10937 10940 10943 10943 10943 10946 10954 10961 10964 10967 10969 10968 10970 10975 10980 10982 10983 10983 10985 10986 10986 10987 10990 10991 10992 10994 10996 10998 11001 11002 11004 11005 11006
10656 10661 10666 10669 10671 10677 10684 10690 10695 10700 10705 10712 10719 10725 10731 10737 10742 10748 10755 10762 10769 10776 10783 10790 10796 10801 10807 10813 10818 10822 10825 10829 10833 10837 10843 10850 10855 10861 10866 10870 10875 10879 10883 10887 10892 10897 10901 10904 10908 10912 10917 10921 10925 10928 10931 10934 10935 10936 10938 10945 10952 10956 10958 10960 10960 10963 10969 10973 10975 10977 10978 10979 10980 10981 10983 10986 10987 10988 10990 10993 10995 10997 10999 11000 11002 11004
10650 10654 10659 10663 10666 10670 10676 10681 10685 10690 10697 10706 10713 10717 10724 10730 10734 10739 10746 10753 10760 10769 10775 10781 10787 10793 10798 10804 10808 10811 10814 10818 10823 10828 10834 10840 10844 10849 10855 10859 10864 10869 10872 10877 10881 10886 10889 10892 10896 10902 10908 10913 10917 10919 10922 10926 10928 10930 10932 10937 10943 10947 10949 10951 10953 10956 10960 10964 10967 10970 10972 10973 10974 10975 10978 10980 10982 10983 10986 10988 10990 10993 10996 10998 11000 11003
10643 10648 10652 10657 10660 10663 10667 10671 10675 10681 10688 10696 10702 10707 10714 10720 10723 10728 10735 10742 10750 10760 10766 10772 10778 10784 10789 10795 10799 10802 10806 10810 10815 10819 10825 10830 10834 10838 10842 10847 10851 10856 10860 10865 10869 10873 10877 10881 10885 10891 10898 10903 10907 10910 10913 10917 10920 10922 10924 10928 10933 10937 10940 10942 10945 10948 10952 10955 10959 10962 10965 10966 10967 10968 10971 10974 10977 10978 10980 10983 10985 10988 10992 10994 10998 11001
10637 10641 10646 10650 10653 10656 10660 10663 10667 10672 10678 10685 10691 10696 10703 10709 10713 10717 10723 10731 10740 10750 10757 10763 10767 10772 10778 10785 10789 10793 10798 10804 10809 10812 10816 10820 10822 10825 10829 10834 10838 10843 10847 10851 10856 10859 10865 10870 10875 10881 10887 10893 10897 10901 10904 10908 10911 10913 10915 10919 10923 10926 10930 10933 10936 10940 10943 10947 10951 10954 10956 10958 10960 10961 10964 10967 10970 10972 10974 10977 10979 10983 10986 10989 10993 10997
10632 10636 10640 10644 10647 10650 10653 10656 10660 10665 10671 10678 10683 10687 10693 10699 10703 10708 10714 10721 10731 10740 10747 10753 10758 10763 10769 10775 10780 10785 10791 10798 10802 10803 10805 10807 10810 10814 10818 10822 10826 10829 10833 10837 10842 10846 10852 10858 10864 10871 10877 10882 10887 10891 10895 10899 10902 10904 10907 10910 10913 10917 10921 10924 10928 10931 10934 10938 10942 10945 10948 10950 10952 10954 10957 10960 10963 10965 10967 10969 10972 10976 10980 10982 10986 10989
10625 10630 10634 10638 10641 10644 10647 10650 10653 10657 10663 10670 10675 10679 10685 10690 10696 10701 10707 10713 10721 10729 10736 10743 10751 10759 10763 10766 10770 10776 10781 10786 10788 10789 10792 10796 10802 10807 10811 10813 10815 10817 10820 10825 10830 10835 10841 10848 10854 10860 10866 10871 10876 10880 10885 10889 10893 10896 10899 10902 10905 10908 10912 10915 10919 10922 10925 10928 10932 10936 10939 10942 10944 10946 10949 10952 10955 10957 10959 10961 10964 10967 10971 10974 10977 10980
10618 10623 10627 10631 10635 10638 10640 10643 10646 10650 10654 10660 10665 10670 10675 10682 10689 10694 10698 10704 10712 10718 10724 10732 10740 10748 10751 10753 10757 10762 10769 10774 10776 10777 10780 10785 10791 10796 10799 10802 10804 10806 10810 10815 10820 10825 10832 10838 10844 10850 10855 10860 10865 10870 10874 10878 10883 10887 10891 10894 10897 10900 10903 10906 10909 10912 10915 10919 10922 10926 10929 10933 10936 10938 10941 10944 10946 10948 10950 10953 10956 10959 10962 10965 10968 10971
10611 10616 10620 10624 10627 10631 10633 10636 10639 10642 10646 10650 10654 10659 10665 10672 10678 10683 10688 10696 10703 10708 10713 10720 10727 10734 10738 10741 10745 10752 10758 10762 10762 10761 10764 10770 10776 10780 10783 10788 10793 10796 10799 10804 10810 10816 10822 10828 10834 10840 10845 10850 10855 10860 10864 10868 10873 10878 10882 10885 10888 10891 10894 10897 10900 10903 10906 10909 10913 10916 10919 10922 10926 10929 10932 10935 10937 10940 10942 10945 10947 10950 10953 10956 10958 10961
10604 10608 10612 10616 10620 10623 10625 10628 10631 10634 10637 10642 10645 10650 10656 10662 10667 10672 10679 10686 10692 10697 10703 10709 10715 10723 10729 10733 10737 10744 10748 10747 10746 10747 10751 10757 10764 10768 10771 10776 10783 10787 10789 10793 10799 10805 10811 10817 10823 10829 10835 10840 10845 10850 10854 10858 10863 10868 10872 10876 10878 10880 10883 10886 10889 10893 10897 10900 10903 10906 10909 10912 10915 10919 10922 10925 10928 10931 10934 10937 10940 10942 10944 10947 10949 10952
10597 10600 10603 10607 10611 10614 10617 10620 10623 10625 10629 10633 10636 10640 10646 10652 10657 10663 10669 10674 10681 10686 10692 10698 10704 10711 10718 10723 10729 10735 10738 10737 10737 10739 10742 10747 10753 10758 10760 10766 10775 10780 10782 10783 10787 10793 10800 10805 10811 10817 10824 10830 10835 10840 10845 10849 10853 10857 10862 10865 10868 10870 10872 10875 10878 10882 10886 10890 10893 10896 10900 10903 10906 10909 10912 10916 10919 10922 10925 10928 10931 10934 10936 10938 10940 10943
10592 10594 10596 10598 10601 10604 10607 10610 10613 10616 10620 10624 10627 10630 10636 10641 10647 10652 10656 10662 10669 10675 10680 10686 10692 10700 10707 10713 10720 10726 10729 10729 10729 10730 10732 10736 10742 10746 10750 10757 10766 10769 10768 10771 10776 10781 10788 10794 10799 10805 10812 10818 10824 10830 10835 10839 10843 10847 10850 10854 10857 10859 10862 10864 10867 10871 10875 10879 10883 10886 10890 10893 10896 10900 10903 10906 10909 10912 10915 10918 10922 10925 10927 10929 10931 10933
10585 10587 10588 10590 10592 10594 10597 10600 10603 10606 10610 10614 10617 10621 10625 10630 10635 10640 10645 10651 10657 10664 10669 10674 10681 10689 10697 10703 10709 10715 10719 10721 10721 10720 10720 10723 10727 10733 10738 10746 10752 10751 10752 10759 10767 10772 10778 10784 10789 10794 10800 10805 10811 10818 10823 10828 10832 10835 10839 10842 10845 10849 10851 10854 10857 10861 10865 10868 10872 10875 10879 10883 10887 10890 10894 10897 10900 10903 10905 10908 10911 10914 10917 10920 10922 10924
10579 10579 10581 10582 10583 10585 10588 10590 10592 10595 10598 10601 10605 10609 10613 10618 10622 10627 10633 10638 10644 10651 10657 10662 10669 10678 10684 10688 10692 10700 10706 10709 10707 10705 10704 10705 10709 10715 10723 10730 10735 10735 10740 10750 10760 10765 10769 10774 10779 10784 10788 10792 10797 10803 10808 10814 10819 10823 10827 10831 10834 10838 10841 10844 10848 10851 10855 10858 10861 10864 10868 10872 10876 10880 10885 10888 10891 10893 10895 10898 10900 10903 10906 10909 10912 10914
10572 10573 10574 10575 10575 10577 10579 10581 10583 10585 10587 10590 10593 10597 10601 10605 10610 10614 10620 10625 10631 10638 10644 10651 10657 10664 10669 10671 10676 10684 10691 10693 10689 10684 10682 10685 10690 10697 10705 10714 10719 10723 10730 10739 10748 10754 10759 10763 10767 10771 10775 10779 10783 10789 10794 10800 10805 10811 10816 10820 10823 10827 10830 10833 10837 10840 10844 10847 10850 10853 10856 10860 10864 10869 10873 10877 10880 10882 10885 10887 10890 10892 10895 10898 10901 10904
10566 10567 10567 10568 10568 10569 10570 10572 10574 10576 10578 10580 10583 10586 10589 10593 10597 10601 10606 10612 10618 10623 10630 10638 10644 10651 10656 10659 10663 10670 10675 10676 10673 10668 10667 10671 10678 10685 10692 10699 10706 10712 10719 10726 10733 10740 10746 10749 10753 10757 10761 10765 10769 10775 10781 10786 10792 10798 10803 10808 10812 10816 10819 10822 10825 10828 10832 10835 10839 10842 10845 10848 10853 10857 10860 10864 10867 10870 10873 10876 10879 10882 10884 10887 10890 10893
10561 10560 10560 10560 10560 10560 10561 10563 10565 10566 10568 10570 10572 10575 10578 10581 10584 10588 10592 10598 10603 10609 10616 10623 10630 10637 10643 10646 10650 10656 10659 10660 10658 10657 10658 10663 10670 10676 10681 10687 10695 10702 10708 10713 10719 10724 10730 10734 10738 10742 10746 10750 10756 10761 10767 10773 10779 10785 10791 10796 10800 10804 10807 10810 10813 10816 10820 10823 10827 10830 10834 10838 10841 10845 10848 10851 10854 10857 10861 10864 10867 10870 10873 10876 10879 10882
10555 10554 10553 10552 10551 10551 10551 10553 10554 10556 10557 10559 10561 10563 10566 10569 10572 10575 10579 10584 10589 10595 10601 10607 10614 10621 10627 10632 10636 10640 10643 10644 10644 10645 10646 10651 10658 10665 10670 10675 10682 10688 10695 10700 10704 10708 10713 10718 10724 10728 10733 10737 10743 10748 10754 10760 10766 10772 10778 10783 10787 10790 10793 10797 10800 10803 10806 10810 10814 10819 10823 10826 10829 10832 10835 10838 10841 10845 10848 10852 10855 10858 10861 10864 10868 10871